Location: Helsinki
(60.1699°N, 24.9384°E)
Time: 13:54:57
(UTC+02:00)

Tiros 1 - Pass Details

Date: 09 October 2022
Orbit: 629 x 662 km, 48.4° (Epoch: 07 December)

Event Time Altitude Azimuth Distance (km) Brightness Sun altitude
Rises 03:43:12 0° 260° (W) 2,993 - -28.6°
Reaches altitude 10° 03:47:27 10° 225° (SW) 2,072 - -28.2°
Maximum altitude 03:48:38 11° 210° (SSW) 2,010 - -28.1°
Drops below altitude 10° 03:49:50 10° 195° (SSW) 2,065 - -28.0°
Sets 03:54:02 0° 160° (SSE) 2,964 - -27.6°
